Regional Weather Roundup
Issued by NWS

Home | Current Version | Previous Version | Text Only | Print | Product List | Glossary On
Versions: 1 2 3 4 5 6 7 8 9 10 11 12 13 14 15 16 17 18 19 20 21 22 23 24 25 26 27 28 29 30 31 32 33 34 35 36 37 38 39 40 41 42 43 44 45 46 47 48 49 50
757
ASUS44 KJAN 180203
RWRMS

MISSISSIPPI HOURLY WEATHER ROUNDUP
NATIONAL WEATHER SERVICE JACKSON MS
900 PM CDT FRI APR 17 2015

NOTE: "FAIR: INDICATES FEW OR NO CLOUDS BELOW 12,000 FEET WITH NO
SIGNIFICANT WEATHER AND/OR OBSTRUCTIONS TO VISIBILITY.

MSZ001>002-007>008-010>013-018>021-025>028-034>036-180300-
NORTHWEST MISSISSIPPI

CITY           SKY/WX    TMP DP  RH WIND       PRES   REMARKS
CLARKSDALE       N/A     68  66  94 NE9       30.00S
CLEVELAND      FAIR      69  66  90 E8        29.97R
GREENWOOD      MOCLDY    69  63  81 E10       29.97S
GREENVILLE     PTCLDY    71  64  78 E6        29.96R
OLIVE BRANCH   CLEAR     63  63 100 E5        30.02R
OXFORD         MOCLDY    63  63 100 NE7       30.03S
TUNICA         MOCLDY    68  63  83 E6        30.02R
$$

MSZ003>006-009-014>017-022>024-029>033-037>039-180300-
NORTHEAST MISSISSIPPI

CITY           SKY/WX    TMP DP  RH WIND       PRES   REMARKS
COLUMBUS AFB   MOCLDY    66  64  94 NE3       30.02R
CORINTH        CLOUDY    66  61  82 SE6       30.03R
GOLDN TRIANGLE CLOUDY    66  63  88 NE5       30.01R
STARKVILLE     CLOUDY    64  63  94 NE7       30.01S
TUPELO         CLEAR     64  61  90 CALM      30.03R
$$

MSZ040-058-180300-
CENTRAL MISSISSIPPI

CITY           SKY/WX    TMP DP  RH WIND       PRES   REMARKS
JACKSON INTL   MOCLDY    70  65  84 NE6       29.96R
JACKSON HAWKNS MOCLDY    70  65  84 NE5       29.96R
MERIDIAN KEY   CLEAR     66  62  87 NE6       29.98R
MERIDIAN NAS   PTCLDY    65  62  90 CALM      29.99R
RAYMOND        FAIR      70  64  83 CALM      29.95R
VICKSBURG      CLOUDY    66  63  90 CALM      29.96R
$$

MSZ059>079-180300-
SOUTH MISSISSIPPI

CITY           SKY/WX    TMP DP  RH WIND       PRES   REMARKS
BROOKHAVEN       N/A     68  68 100 CALM      29.98R
HATTIESBURG    MOCLDY    72  67  84 N3        29.97R
MCCOMB         CLOUDY    71  66  84 N3        29.95R
NATCHEZ        CLOUDY    70  64  83 CALM      29.97R
PINE BELT      PTCLDY    68 N/A N/A CALM      29.97R
$$

MSZ080>082-180300-
COASTAL MISSISSIPPI

CITY           SKY/WX    TMP DP  RH WIND       PRES   REMARKS
BILOXI         MOCLDY    75  75  99 SW9       29.93R
PASCAGOULA     MOCLDY    73  71  93 SW5       29.94R
GULFPORT       MOCLDY    75  70  84 CALM      29.93R
$$



USA.gov is the U.S. government's official web portal to all federal, state and local government web resources and services.